owner,sensor,date,latitude,longitude,sea_water_turbidity,qcFlag 
NERRS,ioos:station:NOAA.NERRS:marabwq:1,2013-12-01T00:45:00Z,27.9798,-97.0287,3.0,1111122 
NERRS,ioos:station:NOAA.NERRS:marabwq:1,2013-12-01T01:45:00Z,27.9798,-97.0287,5.0,1111122 
NERRS,ioos:station:NOAA.NERRS:marabwq:1,2013-12-01T05:45:00Z,27.9798,-97.0287,7.0,1111122 
NERRS,ioos:station:NOAA.NERRS:marabwq:1,2013-12-01T11:45:00Z,27.9798,-97.0287,6.0,1111122 
NERRS,ioos:station:NOAA.NERRS:marabwq:1,2013-12-01T17:45:00Z,27.9798,-97.0287,4.0,1111122 
NERRS,ioos:station:NOAA.NERRS:marabwq:1,2013-12-01T20:45:00Z,27.9798,-97.0287,3.0,1111122 
NERRS,ioos:station:NOAA.NERRS:marabwq:1,2013-12-01T21:45:00Z,27.9798,-97.0287,2.0,1111122 
NERRS,ioos:station:NOAA.NERRS:marabwq:1,2013-12-02T00:45:00Z,27.9798,-97.0287,7.0,1111122 
NERRS,ioos:station:NOAA.NERRS:marabwq:1,2013-12-02T19:45:00Z,27.9798,-97.0287,2.0,1111122 
NERRS,ioos:station:NOAA.NERRS:marabwq:1,2013-12-02T21:45:00Z,27.9798,-97.0287,2.0,1111122 
NERRS,ioos:station:NOAA.NERRS:marabwq:1,2013-12-02T23:45:00Z,27.9798,-97.0287,2.0,1111122 
NERRS,ioos:station:NOAA.NERRS:marabwq:1,2013-12-03T05:45:00Z,27.9798,-97.0287,7.0,1111122 
NERRS,ioos:station:NOAA.NERRS:marabwq:1,2013-12-03T13:45:00Z,27.9798,-97.0287,7.0,1111122 
NERRS,ioos:station:NOAA.NERRS:marabwq:1,2013-12-03T16:45:00Z,27.9798,-97.0287,4.0,1111122 
NERRS,ioos:station:NOAA.NERRS:marabwq:1,2013-12-03T19:45:00Z,27.9798,-97.0287,3.0,1111122 
NERRS,ioos:station:NOAA.NERRS:marabwq:1,2013-12-04T03:45:00Z,27.9798,-97.0287,4.0,1111122 
NERRS,ioos:station:NOAA.NERRS:marabwq:1,2013-12-04T04:45:00Z,27.9798,-97.0287,5.0,1111122 
NERRS,ioos:station:NOAA.NERRS:marabwq:1,2013-12-04T05:45:00Z,27.9798,-97.0287,5.0,1111122 
NERRS,ioos:station:NOAA.NERRS:marabwq:1,2013-12-04T06:45:00Z,27.9798,-97.0287,6.0,1111122 
NERRS,ioos:station:NOAA.NERRS:marabwq:1,2013-12-04T09:45:00Z,27.9798,-97.0287,5.0,1111122 
NERRS,ioos:station:NOAA.NERRS:marabwq:1,2013-12-04T11:45:00Z,27.9798,-97.0287,6.0,1111122 
NERRS,ioos:station:NOAA.NERRS:marabwq:1,2013-12-04T12:45:00Z,27.9798,-97.0287,5.0,1111122 
NERRS,ioos:station:NOAA.NERRS:marabwq:1,2013-12-04T13:45:00Z,27.9798,-97.0287,4.0,1111122 
NERRS,ioos:station:NOAA.NERRS:marabwq:1,2013-12-04T14:45:00Z,27.9798,-97.0287,4.0,1111122 
NERRS,ioos:station:NOAA.NERRS:marabwq:1,2013-12-04T15:45:00Z,27.9798,-97.0287,4.0,1111122 
NERRS,ioos:station:NOAA.NERRS:marabwq:1,2013-12-04T17:45:00Z,27.9798,-97.0287,3.0,1111122 
NERRS,ioos:station:NOAA.NERRS:marabwq:1,2013-12-04T18:45:00Z,27.9798,-97.0287,2.0,1111122 
NERRS,ioos:station:NOAA.NERRS:marabwq:1,2013-12-04T19:45:00Z,27.9798,-97.0287,2.0,1111122 
NERRS,ioos:station:NOAA.NERRS:marabwq:1,2013-12-04T20:45:00Z,27.9798,-97.0287,2.0,1111122 
NERRS,ioos:station:NOAA.NERRS:marabwq:1,2013-12-04T21:45:00Z,27.9798,-97.0287,2.0,1111122 
NERRS,ioos:station:NOAA.NERRS:marabwq:1,2013-12-04T23:45:00Z,27.9798,-97.0287,2.0,1111122 
NERRS,ioos:station:NOAA.NERRS:marabwq:1,2013-12-05T00:45:00Z,27.9798,-97.0287,3.0,1111122 
NERRS,ioos:station:NOAA.NERRS:marabwq:1,2013-12-05T01:45:00Z,27.9798,-97.0287,5.0,1111122 
NERRS,ioos:station:NOAA.NERRS:marabwq:1,2013-12-05T02:45:00Z,27.9798,-97.0287,3.0,1111122 
NERRS,ioos:station:NOAA.NERRS:marabwq:1,2013-12-05T04:45:00Z,27.9798,-97.0287,5.0,1111122 
NERRS,ioos:station:NOAA.NERRS:marabwq:1,2013-12-05T05:45:00Z,27.9798,-97.0287,5.0,1111122 
NERRS,ioos:station:NOAA.NERRS:marabwq:1,2013-12-05T06:45:00Z,27.9798,-97.0287,5.0,1111122 
NERRS,ioos:station:NOAA.NERRS:marabwq:1,2013-12-05T07:45:00Z,27.9798,-97.0287,4.0,1111122 
NERRS,ioos:station:NOAA.NERRS:marabwq:1,2013-12-05T08:45:00Z,27.9798,-97.0287,4.0,1111122 
NERRS,ioos:station:NOAA.NERRS:marabwq:1,2013-12-05T09:45:00Z,27.9798,-97.0287,4.0,1111122 
NERRS,ioos:station:NOAA.NERRS:marabwq:1,2013-12-05T10:45:00Z,27.9798,-97.0287,4.0,1111122 
NERRS,ioos:station:NOAA.NERRS:marabwq:1,2013-12-05T11:45:00Z,27.9798,-97.0287,3.0,1111122 
NERRS,ioos:station:NOAA.NERRS:marabwq:1,2013-12-05T12:45:00Z,27.9798,-97.0287,3.0,1111122 
NERRS,ioos:station:NOAA.NERRS:marabwq:1,2013-12-05T13:45:00Z,27.9798,-97.0287,3.0,1111122 
NERRS,ioos:station:NOAA.NERRS:marabwq:1,2013-12-05T15:45:00Z,27.9798,-97.0287,3.0,1111122 
NERRS,ioos:station:NOAA.NERRS:marabwq:1,2013-12-05T17:45:00Z,27.9798,-97.0287,3.0,1111122 
NERRS,ioos:station:NOAA.NERRS:marabwq:1,2013-12-05T18:45:00Z,27.9798,-97.0287,3.0,1111122 
NERRS,ioos:station:NOAA.NERRS:marabwq:1,2013-12-05T19:45:00Z,27.9798,-97.0287,3.0,1111122 
NERRS,ioos:station:NOAA.NERRS:marabwq:1,2013-12-05T20:45:00Z,27.9798,-97.0287,6.0,1111122 
NERRS,ioos:station:NOAA.NERRS:marabwq:1,2013-12-05T21:45:00Z,27.9798,-97.0287,13.0,1111122 
NERRS,ioos:station:NOAA.NERRS:marabwq:1,2013-12-05T22:45:00Z,27.9798,-97.0287,27.0,1111122 
NERRS,ioos:station:NOAA.NERRS:marabwq:1,2013-12-05T23:45:00Z,27.9798,-97.0287,56.0,1111122 
NERRS,ioos:station:NOAA.NERRS:marabwq:1,2013-12-06T00:45:00Z,27.9798,-97.0287,51.0,1111122 
NERRS,ioos:station:NOAA.NERRS:marabwq:1,2013-12-06T01:45:00Z,27.9798,-97.0287,64.0,1111122 
NERRS,ioos:station:NOAA.NERRS:marabwq:1,2013-12-06T02:45:00Z,27.9798,-97.0287,89.0,1111122 
NERRS,ioos:station:NOAA.NERRS:marabwq:1,2013-12-06T03:45:00Z,27.9798,-97.0287,85.0,1111122 
NERRS,ioos:station:NOAA.NERRS:marabwq:1,2013-12-06T04:45:00Z,27.9798,-97.0287,89.0,1111122 
NERRS,ioos:station:NOAA.NERRS:marabwq:1,2013-12-06T05:45:00Z,27.9798,-97.0287,79.0,1111122 
NERRS,ioos:station:NOAA.NERRS:marabwq:1,2013-12-06T06:45:00Z,27.9798,-97.0287,70.0,1111122 
NERRS,ioos:station:NOAA.NERRS:marabwq:1,2013-12-06T07:45:00Z,27.9798,-97.0287,70.0,1111122 
NERRS,ioos:station:NOAA.NERRS:marabwq:1,2013-12-06T08:45:00Z,27.9798,-97.0287,62.0,1111122 
NERRS,ioos:station:NOAA.NERRS:marabwq:1,2013-12-06T09:45:00Z,27.9798,-97.0287,64.0,1111122 
NERRS,ioos:station:NOAA.NERRS:marabwq:1,2013-12-06T11:45:00Z,27.9798,-97.0287,58.0,1111122 
NERRS,ioos:station:NOAA.NERRS:marabwq:1,2013-12-06T12:45:00Z,27.9798,-97.0287,61.0,1111122 
NERRS,ioos:station:NOAA.NERRS:marabwq:1,2013-12-06T13:45:00Z,27.9798,-97.0287,66.0,1111122 
NERRS,ioos:station:NOAA.NERRS:marabwq:1,2013-12-06T14:45:00Z,27.9798,-97.0287,77.0,1111122 
NERRS,ioos:station:NOAA.NERRS:marabwq:1,2013-12-06T15:45:00Z,27.9798,-97.0287,96.0,1111122 
NERRS,ioos:station:NOAA.NERRS:marabwq:1,2013-12-06T16:45:00Z,27.9798,-97.0287,107.0,1111122 
NERRS,ioos:station:NOAA.NERRS:marabwq:1,2013-12-06T18:45:00Z,27.9798,-97.0287,85.0,1111122 
NERRS,ioos:station:NOAA.NERRS:marabwq:1,2013-12-06T19:45:00Z,27.9798,-97.0287,82.0,1111122 
NERRS,ioos:station:NOAA.NERRS:marabwq:1,2013-12-06T20:45:00Z,27.9798,-97.0287,78.0,1111122 
NERRS,ioos:station:NOAA.NERRS:marabwq:1,2013-12-06T22:45:00Z,27.9798,-97.0287,100.0,1111122 
NERRS,ioos:station:NOAA.NERRS:marabwq:1,2013-12-06T23:45:00Z,27.9798,-97.0287,93.0,1111122 
NERRS,ioos:station:NOAA.NERRS:marabwq:1,2013-12-07T00:45:00Z,27.9798,-97.0287,91.0,1111122 
NERRS,ioos:station:NOAA.NERRS:marabwq:1,2013-12-07T01:45:00Z,27.9798,-97.0287,94.0,1111122 
NERRS,ioos:station:NOAA.NERRS:marabwq:1,2013-12-07T02:45:00Z,27.9798,-97.0287,105.0,1111122 
NERRS,ioos:station:NOAA.NERRS:marabwq:1,2013-12-07T03:45:00Z,27.9798,-97.0287,97.0,1111122 
NERRS,ioos:station:NOAA.NERRS:marabwq:1,2013-12-07T05:45:00Z,27.9798,-97.0287,87.0,1111122 
NERRS,ioos:station:NOAA.NERRS:marabwq:1,2013-12-07T06:45:00Z,27.9798,-97.0287,95.0,1111122 
NERRS,ioos:station:NOAA.NERRS:marabwq:1,2013-12-07T07:45:00Z,27.9798,-97.0287,81.0,1111122 
NERRS,ioos:station:NOAA.NERRS:marabwq:1,2013-12-07T09:45:00Z,27.9798,-97.0287,72.0,1111122 
NERRS,ioos:station:NOAA.NERRS:marabwq:1,2013-12-07T10:45:00Z,27.9798,-97.0287,74.0,1111122 
NERRS,ioos:station:NOAA.NERRS:marabwq:1,2013-12-07T12:45:00Z,27.9798,-97.0287,57.0,1111122 
NERRS,ioos:station:NOAA.NERRS:marabwq:1,2013-12-07T13:45:00Z,27.9798,-97.0287,57.0,1111122 
NERRS,ioos:station:NOAA.NERRS:marabwq:1,2013-12-07T14:45:00Z,27.9798,-97.0287,47.0,1111122 
NERRS,ioos:station:NOAA.NERRS:marabwq:1,2013-12-07T15:45:00Z,27.9798,-97.0287,53.0,1111122 
NERRS,ioos:station:NOAA.NERRS:marabwq:1,2013-12-07T17:45:00Z,27.9798,-97.0287,38.0,1111122 
NERRS,ioos:station:NOAA.NERRS:marabwq:1,2013-12-07T19:45:00Z,27.9798,-97.0287,43.0,1111122 
NERRS,ioos:station:NOAA.NERRS:marabwq:1,2013-12-07T20:45:00Z,27.9798,-97.0287,31.0,1111122 
NERRS,ioos:station:NOAA.NERRS:marabwq:1,2013-12-07T21:45:00Z,27.9798,-97.0287,29.0,1111122 
NERRS,ioos:station:NOAA.NERRS:marabwq:1,2013-12-07T22:45:00Z,27.9798,-97.0287,31.0,1111122 
NERRS,ioos:station:NOAA.NERRS:marabwq:1,2013-12-07T23:45:00Z,27.9798,-97.0287,34.0,1111122 
NERRS,ioos:station:NOAA.NERRS:marabwq:1,2013-12-08T00:45:00Z,27.9798,-97.0287,33.0,1111122 
NERRS,ioos:station:NOAA.NERRS:marabwq:1,2013-12-08T01:45:00Z,27.9798,-97.0287,31.0,1111122 
NERRS,ioos:station:NOAA.NERRS:marabwq:1,2013-12-08T02:45:00Z,27.9798,-97.0287,30.0,1111122 
NERRS,ioos:station:NOAA.NERRS:marabwq:1,2013-12-08T03:45:00Z,27.9798,-97.0287,38.0,1111122 
NERRS,ioos:station:NOAA.NERRS:marabwq:1,2013-12-08T05:45:00Z,27.9798,-97.0287,26.0,1111122 
NERRS,ioos:station:NOAA.NERRS:marabwq:1,2013-12-08T06:45:00Z,27.9798,-97.0287,36.0,1111122 
NERRS,ioos:station:NOAA.NERRS:marabwq:1,2013-12-08T07:45:00Z,27.9798,-97.0287,22.0,1111122 
NERRS,ioos:station:NOAA.NERRS:marabwq:1,2013-12-08T08:45:00Z,27.9798,-97.0287,29.0,1111122 
NERRS,ioos:station:NOAA.NERRS:marabwq:1,2013-12-08T10:45:00Z,27.9798,-97.0287,39.0,1111122 
NERRS,ioos:station:NOAA.NERRS:marabwq:1,2013-12-08T11:45:00Z,27.9798,-97.0287,47.0,1111122 
NERRS,ioos:station:NOAA.NERRS:marabwq:1,2013-12-08T12:45:00Z,27.9798,-97.0287,50.0,1111122 
NERRS,ioos:station:NOAA.NERRS:marabwq:1,2013-12-08T13:45:00Z,27.9798,-97.0287,29.0,1111122 
NERRS,ioos:station:NOAA.NERRS:marabwq:1,2013-12-08T14:45:00Z,27.9798,-97.0287,28.0,1111122 
NERRS,ioos:station:NOAA.NERRS:marabwq:1,2013-12-08T16:45:00Z,27.9798,-97.0287,22.0,1111122 
NERRS,ioos:station:NOAA.NERRS:marabwq:1,2013-12-08T17:45:00Z,27.9798,-97.0287,20.0,1111122 
NERRS,ioos:station:NOAA.NERRS:marabwq:1,2013-12-08T19:45:00Z,27.9798,-97.0287,39.0,1111122 
NERRS,ioos:station:NOAA.NERRS:marabwq:1,2013-12-08T21:45:00Z,27.9798,-97.0287,15.0,1111122 
NERRS,ioos:station:NOAA.NERRS:marabwq:1,2013-12-08T22:45:00Z,27.9798,-97.0287,13.0,1111122 
NERRS,ioos:station:NOAA.NERRS:marabwq:1,2013-12-08T23:45:00Z,27.9798,-97.0287,12.0,1111122 
NERRS,ioos:station:NOAA.NERRS:marabwq:1,2013-12-09T00:45:00Z,27.9798,-97.0287,15.0,1111122 
NERRS,ioos:station:NOAA.NERRS:marabwq:1,2013-12-09T01:45:00Z,27.9798,-97.0287,16.0,1111122 
NERRS,ioos:station:NOAA.NERRS:marabwq:1,2013-12-09T03:45:00Z,27.9798,-97.0287,12.0,1111122 
NERRS,ioos:station:NOAA.NERRS:marabwq:1,2013-12-09T05:45:00Z,27.9798,-97.0287,11.0,1111122 
NERRS,ioos:station:NOAA.NERRS:marabwq:1,2013-12-09T06:45:00Z,27.9798,-97.0287,11.0,1111122 
NERRS,ioos:station:NOAA.NERRS:marabwq:1,2013-12-09T07:45:00Z,27.9798,-97.0287,16.0,1111122 
NERRS,ioos:station:NOAA.NERRS:marabwq:1,2013-12-09T08:45:00Z,27.9798,-97.0287,20.0,1111122 
NERRS,ioos:station:NOAA.NERRS:marabwq:1,2013-12-09T09:45:00Z,27.9798,-97.0287,15.0,1111122 
NERRS,ioos:station:NOAA.NERRS:marabwq:1,2013-12-09T11:45:00Z,27.9798,-97.0287,8.0,1111122 
NERRS,ioos:station:NOAA.NERRS:marabwq:1,2013-12-09T13:45:00Z,27.9798,-97.0287,8.0,1111122 
NERRS,ioos:station:NOAA.NERRS:marabwq:1,2013-12-09T15:45:00Z,27.9798,-97.0287,7.0,1111122 
NERRS,ioos:station:NOAA.NERRS:marabwq:1,2013-12-09T20:45:00Z,27.9798,-97.0287,12.0,1111122 
NERRS,ioos:station:NOAA.NERRS:marabwq:1,2013-12-10T00:45:00Z,27.9798,-97.0287,36.0,1111122 
NERRS,ioos:station:NOAA.NERRS:marabwq:1,2013-12-10T01:45:00Z,27.9798,-97.0287,43.0,1111122 
NERRS,ioos:station:NOAA.NERRS:marabwq:1,2013-12-10T07:45:00Z,27.9798,-97.0287,97.0,1111122 
NERRS,ioos:station:NOAA.NERRS:marabwq:1,2013-12-10T10:45:00Z,27.9798,-97.0287,99.0,1111122 
NERRS,ioos:station:NOAA.NERRS:marabwq:1,2013-12-10T11:45:00Z,27.9798,-97.0287,108.0,1111122 
NERRS,ioos:station:NOAA.NERRS:marabwq:1,2013-12-10T12:45:00Z,27.9798,-97.0287,99.0,1111122 
NERRS,ioos:station:NOAA.NERRS:marabwq:1,2013-12-10T17:45:00Z,27.9798,-97.0287,51.0,1111122 
NERRS,ioos:station:NOAA.NERRS:marabwq:1,2013-12-10T21:45:00Z,27.9798,-97.0287,24.0,1111122 
NERRS,ioos:station:NOAA.NERRS:marabwq:1,2013-12-11T02:45:00Z,27.9798,-97.0287,13.0,1111122 
NERRS,ioos:station:NOAA.NERRS:marabwq:1,2013-12-11T06:45:00Z,27.9798,-97.0287,11.0,1111122 
NERRS,ioos:station:NOAA.NERRS:marabwq:1,2013-12-11T07:45:00Z,27.9798,-97.0287,10.0,1111122 
NERRS,ioos:station:NOAA.NERRS:marabwq:1,2013-12-11T11:45:00Z,27.9798,-97.0287,9.0,1111122 
NERRS,ioos:station:NOAA.NERRS:marabwq:1,2013-12-11T16:45:00Z,27.9798,-97.0287,7.0,1111122 
NERRS,ioos:station:NOAA.NERRS:marabwq:1,2013-12-11T21:45:00Z,27.9798,-97.0287,7.0,1111122 
NERRS,ioos:station:NOAA.NERRS:marabwq:1,2013-12-12T00:45:00Z,27.9798,-97.0287,6.0,1111122 
NERRS,ioos:station:NOAA.NERRS:marabwq:1,2013-12-12T08:45:00Z,27.9798,-97.0287,8.0,1111122 
NERRS,ioos:station:NOAA.NERRS:marabwq:1,2013-12-12T14:45:00Z,27.9798,-97.0287,37.0,1111122 
NERRS,ioos:station:NOAA.NERRS:marabwq:1,2013-12-12T15:45:00Z,27.9798,-97.0287,32.0,1111122 
NERRS,ioos:station:NOAA.NERRS:marabwq:1,2013-12-12T18:45:00Z,27.9798,-97.0287,17.0,1111122 
NERRS,ioos:station:NOAA.NERRS:marabwq:1,2013-12-12T22:45:00Z,27.9798,-97.0287,15.0,1111122 
NERRS,ioos:station:NOAA.NERRS:marabwq:1,2013-12-13T06:45:00Z,27.9798,-97.0287,10.0,1111122 
NERRS,ioos:station:NOAA.NERRS:marabwq:1,2013-12-13T07:45:00Z,27.9798,-97.0287,8.0,1111122 
NERRS,ioos:station:NOAA.NERRS:marabwq:1,2013-12-13T08:45:00Z,27.9798,-97.0287,8.0,1111122 
NERRS,ioos:station:NOAA.NERRS:marabwq:1,2013-12-13T09:45:00Z,27.9798,-97.0287,7.0,1111122 
NERRS,ioos:station:NOAA.NERRS:marabwq:1,2013-12-13T10:45:00Z,27.9798,-97.0287,7.0,1111122 
NERRS,ioos:station:NOAA.NERRS:marabwq:1,2013-12-13T11:45:00Z,27.9798,-97.0287,7.0,1111122 
NERRS,ioos:station:NOAA.NERRS:marabwq:1,2013-12-13T12:45:00Z,27.9798,-97.0287,7.0,1111122 
NERRS,ioos:station:NOAA.NERRS:marabwq:1,2013-12-13T13:45:00Z,27.9798,-97.0287,13.0,1111122 
NERRS,ioos:station:NOAA.NERRS:marabwq:1,2013-12-13T14:45:00Z,27.9798,-97.0287,6.0,1111122 
NERRS,ioos:station:NOAA.NERRS:marabwq:1,2013-12-13T15:45:00Z,27.9798,-97.0287,5.0,1111122 
NERRS,ioos:station:NOAA.NERRS:marabwq:1,2013-12-13T16:45:00Z,27.9798,-97.0287,5.0,1111122 
NERRS,ioos:station:NOAA.NERRS:marabwq:1,2013-12-13T17:45:00Z,27.9798,-97.0287,5.0,1111122 
NERRS,ioos:station:NOAA.NERRS:marabwq:1,2013-12-13T18:45:00Z,27.9798,-97.0287,5.0,1111122 
NERRS,ioos:station:NOAA.NERRS:marabwq:1,2013-12-13T19:45:00Z,27.9798,-97.0287,6.0,1111122 
NERRS,ioos:station:NOAA.NERRS:marabwq:1,2013-12-13T20:45:00Z,27.9798,-97.0287,5.0,1111122 
NERRS,ioos:station:NOAA.NERRS:marabwq:1,2013-12-13T21:45:00Z,27.9798,-97.0287,6.0,1111122 
NERRS,ioos:station:NOAA.NERRS:marabwq:1,2013-12-13T22:45:00Z,27.9798,-97.0287,5.0,1111122 
NERRS,ioos:station:NOAA.NERRS:marabwq:1,2013-12-13T23:45:00Z,27.9798,-97.0287,6.0,1111122 
NERRS,ioos:station:NOAA.NERRS:marabwq:1,2013-12-14T00:45:00Z,27.9798,-97.0287,5.0,1111122 
NERRS,ioos:station:NOAA.NERRS:marabwq:1,2013-12-14T01:45:00Z,27.9798,-97.0287,7.0,1111122 
NERRS,ioos:station:NOAA.NERRS:marabwq:1,2013-12-14T02:45:00Z,27.9798,-97.0287,8.0,1111122 
NERRS,ioos:station:NOAA.NERRS:marabwq:1,2013-12-14T03:45:00Z,27.9798,-97.0287,7.0,1111122 
NERRS,ioos:station:NOAA.NERRS:marabwq:1,2013-12-14T04:45:00Z,27.9798,-97.0287,9.0,1111122 
NERRS,ioos:station:NOAA.NERRS:marabwq:1,2013-12-14T05:45:00Z,27.9798,-97.0287,8.0,1111122 
NERRS,ioos:station:NOAA.NERRS:marabwq:1,2013-12-14T07:45:00Z,27.9798,-97.0287,10.0,1111122 
NERRS,ioos:station:NOAA.NERRS:marabwq:1,2013-12-14T08:45:00Z,27.9798,-97.0287,8.0,1111122 
NERRS,ioos:station:NOAA.NERRS:marabwq:1,2013-12-14T09:45:00Z,27.9798,-97.0287,7.0,1111122 
NERRS,ioos:station:NOAA.NERRS:marabwq:1,2013-12-14T10:45:00Z,27.9798,-97.0287,7.0,1111122 
NERRS,ioos:station:NOAA.NERRS:marabwq:1,2013-12-14T11:45:00Z,27.9798,-97.0287,7.0,1111122 
NERRS,ioos:station:NOAA.NERRS:marabwq:1,2013-12-14T12:45:00Z,27.9798,-97.0287,8.0,1111122 
NERRS,ioos:station:NOAA.NERRS:marabwq:1,2013-12-14T13:45:00Z,27.9798,-97.0287,7.0,1111122 
NERRS,ioos:station:NOAA.NERRS:marabwq:1,2013-12-14T14:45:00Z,27.9798,-97.0287,7.0,1111122 
NERRS,ioos:station:NOAA.NERRS:marabwq:1,2013-12-14T15:45:00Z,27.9798,-97.0287,6.0,1111122 
NERRS,ioos:station:NOAA.NERRS:marabwq:1,2013-12-14T16:45:00Z,27.9798,-97.0287,5.0,1111122 
NERRS,ioos:station:NOAA.NERRS:marabwq:1,2013-12-14T17:45:00Z,27.9798,-97.0287,6.0,1111122 
NERRS,ioos:station:NOAA.NERRS:marabwq:1,2013-12-14T18:45:00Z,27.9798,-97.0287,5.0,1111122 
NERRS,ioos:station:NOAA.NERRS:marabwq:1,2013-12-14T19:45:00Z,27.9798,-97.0287,5.0,1111122 
NERRS,ioos:station:NOAA.NERRS:marabwq:1,2013-12-14T20:45:00Z,27.9798,-97.0287,3.0,1111122 
NERRS,ioos:station:NOAA.NERRS:marabwq:1,2013-12-14T22:45:00Z,27.9798,-97.0287,13.0,1111122 
NERRS,ioos:station:NOAA.NERRS:marabwq:1,2013-12-14T23:45:00Z,27.9798,-97.0287,22.0,1111122 
NERRS,ioos:station:NOAA.NERRS:marabwq:1,2013-12-15T00:45:00Z,27.9798,-97.0287,20.0,1111122 
NERRS,ioos:station:NOAA.NERRS:marabwq:1,2013-12-15T01:45:00Z,27.9798,-97.0287,22.0,1111122 
NERRS,ioos:station:NOAA.NERRS:marabwq:1,2013-12-15T02:45:00Z,27.9798,-97.0287,25.0,1111122 
NERRS,ioos:station:NOAA.NERRS:marabwq:1,2013-12-15T03:45:00Z,27.9798,-97.0287,29.0,1111122 
NERRS,ioos:station:NOAA.NERRS:marabwq:1,2013-12-15T04:45:00Z,27.9798,-97.0287,29.0,1111122 
NERRS,ioos:station:NOAA.NERRS:marabwq:1,2013-12-15T06:45:00Z,27.9798,-97.0287,29.0,1111122 
NERRS,ioos:station:NOAA.NERRS:marabwq:1,2013-12-15T07:45:00Z,27.9798,-97.0287,29.0,1111122 
NERRS,ioos:station:NOAA.NERRS:marabwq:1,2013-12-15T08:45:00Z,27.9798,-97.0287,26.0,1111122 
NERRS,ioos:station:NOAA.NERRS:marabwq:1,2013-12-15T09:45:00Z,27.9798,-97.0287,27.0,1111122 
NERRS,ioos:station:NOAA.NERRS:marabwq:1,2013-12-15T10:45:00Z,27.9798,-97.0287,24.0,1111122 
NERRS,ioos:station:NOAA.NERRS:marabwq:1,2013-12-15T11:45:00Z,27.9798,-97.0287,34.0,1111122 
NERRS,ioos:station:NOAA.NERRS:marabwq:1,2013-12-15T12:45:00Z,27.9798,-97.0287,29.0,1111122 
NERRS,ioos:station:NOAA.NERRS:marabwq:1,2013-12-15T13:45:00Z,27.9798,-97.0287,21.0,1111122 
NERRS,ioos:station:NOAA.NERRS:marabwq:1,2013-12-15T14:45:00Z,27.9798,-97.0287,14.0,1111122 
NERRS,ioos:station:NOAA.NERRS:marabwq:1,2013-12-15T15:45:00Z,27.9798,-97.0287,11.0,1111122 
NERRS,ioos:station:NOAA.NERRS:marabwq:1,2013-12-15T16:45:00Z,27.9798,-97.0287,8.0,1111122 
NERRS,ioos:station:NOAA.NERRS:marabwq:1,2013-12-15T17:45:00Z,27.9798,-97.0287,8.0,1111122 
NERRS,ioos:station:NOAA.NERRS:marabwq:1,2013-12-15T18:45:00Z,27.9798,-97.0287,6.0,1111122 
NERRS,ioos:station:NOAA.NERRS:marabwq:1,2013-12-15T19:45:00Z,27.9798,-97.0287,3.0,1111122 
NERRS,ioos:station:NOAA.NERRS:marabwq:1,2013-12-15T20:45:00Z,27.9798,-97.0287,6.0,1111122 
NERRS,ioos:station:NOAA.NERRS:marabwq:1,2013-12-15T21:45:00Z,27.9798,-97.0287,4.0,1111122 
NERRS,ioos:station:NOAA.NERRS:marabwq:1,2013-12-15T22:45:00Z,27.9798,-97.0287,4.0,1111122 
NERRS,ioos:station:NOAA.NERRS:marabwq:1,2013-12-15T23:45:00Z,27.9798,-97.0287,4.0,1111122 
NERRS,ioos:station:NOAA.NERRS:marabwq:1,2013-12-16T00:45:00Z,27.9798,-97.0287,4.0,1111122 
NERRS,ioos:station:NOAA.NERRS:marabwq:1,2013-12-16T01:45:00Z,27.9798,-97.0287,4.0,1111122 
NERRS,ioos:station:NOAA.NERRS:marabwq:1,2013-12-16T02:45:00Z,27.9798,-97.0287,5.0,1111122 
NERRS,ioos:station:NOAA.NERRS:marabwq:1,2013-12-16T03:45:00Z,27.9798,-97.0287,4.0,1111122 
NERRS,ioos:station:NOAA.NERRS:marabwq:1,2013-12-16T04:45:00Z,27.9798,-97.0287,4.0,1111122 
NERRS,ioos:station:NOAA.NERRS:marabwq:1,2013-12-16T05:45:00Z,27.9798,-97.0287,4.0,1111122 
NERRS,ioos:station:NOAA.NERRS:marabwq:1,2013-12-16T06:45:00Z,27.9798,-97.0287,4.0,1111122 
NERRS,ioos:station:NOAA.NERRS:marabwq:1,2013-12-16T07:45:00Z,27.9798,-97.0287,3.0,1111122 
NERRS,ioos:station:NOAA.NERRS:marabwq:1,2013-12-16T08:45:00Z,27.9798,-97.0287,3.0,1111122 
NERRS,ioos:station:NOAA.NERRS:marabwq:1,2013-12-16T09:45:00Z,27.9798,-97.0287,4.0,1111122 
NERRS,ioos:station:NOAA.NERRS:marabwq:1,2013-12-16T10:45:00Z,27.9798,-97.0287,3.0,1111122 
NERRS,ioos:station:NOAA.NERRS:marabwq:1,2013-12-16T11:45:00Z,27.9798,-97.0287,4.0,1111122 
NERRS,ioos:station:NOAA.NERRS:marabwq:1,2013-12-16T12:45:00Z,27.9798,-97.0287,3.0,1111122 
NERRS,ioos:station:NOAA.NERRS:marabwq:1,2013-12-16T13:45:00Z,27.9798,-97.0287,3.0,1111122 
NERRS,ioos:station:NOAA.NERRS:marabwq:1,2013-12-16T14:45:00Z,27.9798,-97.0287,4.0,1111122 
NERRS,ioos:station:NOAA.NERRS:marabwq:1,2013-12-16T15:45:00Z,27.9798,-97.0287,6.0,1111122 
NERRS,ioos:station:NOAA.NERRS:marabwq:1,2013-12-16T16:45:00Z,27.9798,-97.0287,4.0,1111122 
NERRS,ioos:station:NOAA.NERRS:marabwq:1,2013-12-16T18:45:00Z,27.9798,-97.0287,2.0,1111122 
NERRS,ioos:station:NOAA.NERRS:marabwq:1,2013-12-16T19:45:00Z,27.9798,-97.0287,4.0,1111122 
NERRS,ioos:station:NOAA.NERRS:marabwq:1,2013-12-16T20:45:00Z,27.9798,-97.0287,4.0,1111122 
NERRS,ioos:station:NOAA.NERRS:marabwq:1,2013-12-16T21:45:00Z,27.9798,-97.0287,3.0,1111122 
NERRS,ioos:station:NOAA.NERRS:marabwq:1,2013-12-16T22:45:00Z,27.9798,-97.0287,3.0,1111122 
NERRS,ioos:station:NOAA.NERRS:marabwq:1,2013-12-16T23:45:00Z,27.9798,-97.0287,3.0,1111122 
NERRS,ioos:station:NOAA.NERRS:marabwq:1,2013-12-17T00:45:00Z,27.9798,-97.0287,2.0,1111122 
NERRS,ioos:station:NOAA.NERRS:marabwq:1,2013-12-17T01:45:00Z,27.9798,-97.0287,2.0,1111122 
NERRS,ioos:station:NOAA.NERRS:marabwq:1,2013-12-17T02:45:00Z,27.9798,-97.0287,2.0,1111122 
NERRS,ioos:station:NOAA.NERRS:marabwq:1,2013-12-17T03:45:00Z,27.9798,-97.0287,3.0,1111122 
NERRS,ioos:station:NOAA.NERRS:marabwq:1,2013-12-17T04:45:00Z,27.9798,-97.0287,3.0,1111122 
NERRS,ioos:station:NOAA.NERRS:marabwq:1,2013-12-17T05:45:00Z,27.9798,-97.0287,3.0,1111122 
NERRS,ioos:station:NOAA.NERRS:marabwq:1,2013-12-17T06:45:00Z,27.9798,-97.0287,5.0,1111122 
NERRS,ioos:station:NOAA.NERRS:marabwq:1,2013-12-17T07:45:00Z,27.9798,-97.0287,5.0,1111122 
NERRS,ioos:station:NOAA.NERRS:marabwq:1,2013-12-17T08:45:00Z,27.9798,-97.0287,3.0,1111122 
NERRS,ioos:station:NOAA.NERRS:marabwq:1,2013-12-17T09:45:00Z,27.9798,-97.0287,3.0,1111122 
NERRS,ioos:station:NOAA.NERRS:marabwq:1,2013-12-17T10:45:00Z,27.9798,-97.0287,3.0,1111122 
NERRS,ioos:station:NOAA.NERRS:marabwq:1,2013-12-17T11:45:00Z,27.9798,-97.0287,3.0,1111122 
NERRS,ioos:station:NOAA.NERRS:marabwq:1,2013-12-17T12:45:00Z,27.9798,-97.0287,4.0,1111122 
NERRS,ioos:station:NOAA.NERRS:marabwq:1,2013-12-17T13:45:00Z,27.9798,-97.0287,10.0,1111122 
NERRS,ioos:station:NOAA.NERRS:marabwq:1,2013-12-17T14:45:00Z,27.9798,-97.0287,3.0,1111122 
NERRS,ioos:station:NOAA.NERRS:marabwq:1,2013-12-17T15:45:00Z,27.9798,-97.0287,4.0,1111122 
NERRS,ioos:station:NOAA.NERRS:marabwq:1,2013-12-17T17:45:00Z,27.9798,-97.0287,2.0,1111122 
NERRS,ioos:station:NOAA.NERRS:marabwq:1,2013-12-17T18:45:00Z,27.9798,-97.0287,2.0,1111122 
NERRS,ioos:station:NOAA.NERRS:marabwq:1,2013-12-17T19:45:00Z,27.9798,-97.0287,2.0,1111122 
NERRS,ioos:station:NOAA.NERRS:marabwq:1,2013-12-17T20:45:00Z,27.9798,-97.0287,2.0,1111122 
NERRS,ioos:station:NOAA.NERRS:marabwq:1,2013-12-17T21:45:00Z,27.9798,-97.0287,4.0,1111122 
NERRS,ioos:station:NOAA.NERRS:marabwq:1,2013-12-18T00:45:00Z,27.9798,-97.0287,3.0,1111122 
NERRS,ioos:station:NOAA.NERRS:marabwq:1,2013-12-18T01:45:00Z,27.9798,-97.0287,3.0,1111122 
NERRS,ioos:station:NOAA.NERRS:marabwq:1,2013-12-18T02:45:00Z,27.9798,-97.0287,2.0,1111122 
NERRS,ioos:station:NOAA.NERRS:marabwq:1,2013-12-18T03:45:00Z,27.9798,-97.0287,3.0,1111122 
NERRS,ioos:station:NOAA.NERRS:marabwq:1,2013-12-18T04:45:00Z,27.9798,-97.0287,4.0,1111122 
NERRS,ioos:station:NOAA.NERRS:marabwq:1,2013-12-18T05:45:00Z,27.9798,-97.0287,4.0,1111122 
NERRS,ioos:station:NOAA.NERRS:marabwq:1,2013-12-18T06:45:00Z,27.9798,-97.0287,5.0,1111122 
NERRS,ioos:station:NOAA.NERRS:marabwq:1,2013-12-18T07:45:00Z,27.9798,-97.0287,5.0,1111122 
NERRS,ioos:station:NOAA.NERRS:marabwq:1,2013-12-18T08:45:00Z,27.9798,-97.0287,5.0,1111122 
NERRS,ioos:station:NOAA.NERRS:marabwq:1,2013-12-18T09:45:00Z,27.9798,-97.0287,5.0,1111122 
NERRS,ioos:station:NOAA.NERRS:marabwq:1,2013-12-18T10:45:00Z,27.9798,-97.0287,5.0,1111122 